DW8501 Madrid ES current weather conditions

sailwx.info

Wind from 048 at 5 knots gusting 9

Air temperature 4.4° C
Dewpoint 1.3° C

Last reported at 2014-Dec-21 08:55 UTC.
Time now 2014-Dec-21 09:56 UTC

Location: N 40°27' W 003°35'.
View on Google Maps.

See reports from other nearby stations

  
Tides and Currents Weather Stations Pressure Air Temp Water Temp Dewpoint Dewpoint Depression Visibility Wind Speed Wind Dir Waves Ship Positions
date/time (UTC)wind fromknots sea level pressurealtimeterstation pressurevisibilityair tempwater tempwave heightnotes
2014-Dec-21 08:55 048 5 gusting 9 4.4
2014-Dec-21 08:50 045 6 gusting 10 3.9
2014-Dec-21 08:45 045 8 gusting 11 3.9
2014-Dec-21 08:40 045 8 gusting 12 3.3
2014-Dec-21 08:35 045 8 gusting 12 3.9
2014-Dec-21 08:30 047 8 gusting 10 3.9
2014-Dec-21 08:25 044 8 gusting 10 3.9
2014-Dec-21 08:20 044 6 gusting 10 3.9
2014-Dec-21 08:15 049 4 gusting 8 3.9
2014-Dec-21 08:10 048 4 gusting 8 3.3
2014-Dec-21 08:05 042 5 gusting 8 3.3
2014-Dec-21 08:00 033 6 gusting 7 2.8
2014-Dec-21 07:55 033 6 gusting 8 2.8
2014-Dec-21 07:50 027 4 gusting 10 2.2
2014-Dec-21 07:45 035 4 gusting 10 2.2
2014-Dec-21 07:40 043 7 gusting 10 2.2
2014-Dec-21 07:35 033 6 gusting 8 1.7
2014-Dec-21 07:30 041 6 gusting 6 2.2
2014-Dec-21 07:25 038 3 gusting 6 2.2
2014-Dec-21 07:20 027 4 gusting 6 2.2
2014-Dec-21 07:15 017 4 gusting 6 2.2
2014-Dec-21 07:10 031 3 gusting 6 2.2
2014-Dec-21 07:05 040 4 gusting 6 2.2
2014-Dec-21 07:00 034 3 gusting 6 2.2
2014-Dec-21 06:55 031 4 gusting 6 2.2
2014-Dec-21 06:50 031 5 gusting 6 2.2
2014-Dec-21 06:45 040 3 gusting 5 2.2
2014-Dec-21 06:40 045 3 gusting 5 2.2
2014-Dec-21 06:35 045 1 gusting 3 2.2
2014-Dec-21 06:30 046 2 gusting 3 2.2
2014-Dec-21 06:25 045 2 gusting 3 2.2
2014-Dec-21 06:20 027 1 gusting 3 2.2
2014-Dec-21 06:15 356 1 gusting 3 2.2
2014-Dec-21 06:10 350 1 gusting 2 2.2
2014-Dec-21 06:05 351 1 gusting 2 2.2
2014-Dec-21 06:00 355 1 gusting 2 2.2
2014-Dec-21 05:55 018 0 gusting 2 2.2
2014-Dec-21 05:50 028 0 gusting 3 2.2
2014-Dec-21 05:45 038 1 gusting 3 2.2
2014-Dec-21 05:40 042 2 gusting 3 2.8
2014-Dec-21 05:35 043 3 gusting 3 2.8
2014-Dec-21 05:30 045 2 gusting 3 2.2
2014-Dec-21 05:25 045 1 gusting 3 2.2
2014-Dec-21 05:20 046 1 gusting 3 2.2
2014-Dec-21 05:15 034 2 gusting 3 2.2
2014-Dec-21 05:05 337 1 gusting 2 2.2
2014-Dec-21 05:00 345 1 gusting 2 2.2
2014-Dec-21 04:55 329 1 gusting 2 2.2
2014-Dec-21 04:50 333 1 gusting 2 2.2
2014-Dec-21 04:45 347 1 gusting 2 2.2
2014-Dec-21 04:40 335 1 gusting 2 2.2
2014-Dec-21 04:35 308 0 gusting 2 2.2
2014-Dec-21 04:30 1.7
2014-Dec-21 04:25 2.2
2014-Dec-21 04:20 241 1 gusting 2 2.2
2014-Dec-21 04:15 1.7
2014-Dec-21 04:10 2.2
2014-Dec-21 04:05 086 1 gusting 1 2.2
2014-Dec-21 04:00 098 1 gusting 1 2.2
2014-Dec-21 03:55 121 0 gusting 1 2.8
2014-Dec-21 03:50 266 0 gusting 1 2.8
2014-Dec-21 03:45 2.8
2014-Dec-21 03:40 265 1 gusting 2 2.8
2014-Dec-21 03:35 312 0 gusting 2 2.8
2014-Dec-21 03:30 2.8
2014-Dec-21 03:25 009 1 gusting 1 2.8
2014-Dec-21 03:20 2.8
2014-Dec-21 03:15 2.8
2014-Dec-21 03:10 3.3
2014-Dec-21 03:05 3.9
2014-Dec-21 03:00 3.9
2014-Dec-21 02:55 198 0 gusting 2 3.9
2014-Dec-21 02:50 205 1 gusting 2 3.9
2014-Dec-21 02:45 226 1 gusting 2 3.9
2014-Dec-21 02:40 3.9
2014-Dec-21 02:35 3.9
2014-Dec-21 02:30 081 0 gusting 2 3.9
2014-Dec-21 02:25 3.9
2014-Dec-21 02:20 4.4
2014-Dec-21 02:15 090 1 gusting 3 4.4
2014-Dec-21 02:10 081 1 gusting 3 4.4
2014-Dec-21 02:05 082 0 gusting 2 4.4
2014-Dec-21 02:00 080 0 gusting 3 4.4
2014-Dec-21 01:55 061 0 gusting 3 4.4
2014-Dec-21 01:50 051 2 gusting 3 3.9
2014-Dec-21 01:45 3.9
2014-Dec-21 01:40 3.9
2014-Dec-21 01:35 3.9
2014-Dec-21 01:30 4.4
2014-Dec-21 01:25 4.4
2014-Dec-21 01:20 4.4
2014-Dec-21 01:10 083 2 gusting 3 5.0
2014-Dec-21 01:05 090 0 gusting 1 4.4
2014-Dec-21 01:00 166 0 gusting 2 4.4
2014-Dec-21 00:55 4.4
2014-Dec-21 00:50 234 1 gusting 3 5.0
2014-Dec-21 00:45 240 1 gusting 3 5.0
2014-Dec-21 00:40 094 0 gusting 3 5.0
2014-Dec-21 00:35 106 1 gusting 3 5.0
2014-Dec-21 00:30 101 1 gusting 6 5.6
2014-Dec-21 00:25 108 3 gusting 6 5.6
2014-Dec-21 00:20 117 4 gusting 6 5.6
2014-Dec-21 00:15 106 3 gusting 6 6.1
2014-Dec-21 00:10 096 3 gusting 6 6.1
2014-Dec-21 00:05 090 4 gusting 6 6.1
2014-Dec-21 00:00 086 3 gusting 6 6.1
2014-Dec-20 23:55 089 3 gusting 5 6.1
2014-Dec-20 23:50 096 1 gusting 3 6.1
2014-Dec-20 23:45 103 2 gusting 3 6.1
2014-Dec-20 23:40 6.1
2014-Dec-20 23:35 6.7
2014-Dec-20 23:30 069 0 gusting 4 6.7
2014-Dec-20 23:25 060 0 gusting 4 6.7
2014-Dec-20 23:20 071 2 gusting 5 6.7
2014-Dec-20 23:15 076 1 gusting 6 6.7
2014-Dec-20 23:10 084 2 gusting 6 6.7
2014-Dec-20 23:05 094 3 gusting 6 6.7
2014-Dec-20 23:00 093 3 gusting 6 6.7
2014-Dec-20 22:55 089 3 gusting 6 6.7
2014-Dec-20 22:50 094 3 gusting 6 6.7
2014-Dec-20 22:45 095 3 gusting 5 6.7
2014-Dec-20 22:40 090 3 gusting 4 6.7
2014-Dec-20 22:35 083 3 gusting 4 6.7
2014-Dec-20 22:30 075 1 gusting 5 7.2
2014-Dec-20 22:25 081 3 gusting 5 7.2
2014-Dec-20 22:20 085 3 gusting 5 7.2
2014-Dec-20 22:15 085 3 gusting 6 7.8
2014-Dec-20 22:10 086 3 gusting 6 7.2
2014-Dec-20 22:05 066 2 gusting 3 7.2
2014-Dec-20 22:00 066 2 gusting 3 7.8
2014-Dec-20 21:55 079 1 gusting 3 7.8
2014-Dec-20 21:50 088 1 gusting 3 7.8
2014-Dec-20 21:45 100 2 gusting 3 8.3
2014-Dec-20 21:40 091 1 gusting 4 8.3
2014-Dec-20 21:35 083 1 gusting 4 8.3
2014-Dec-20 21:30 064 1 gusting 5 8.3
2014-Dec-20 21:25 064 1 gusting 6 8.3
2014-Dec-20 21:20 074 1 gusting 6 8.3
2014-Dec-20 21:15 073 4 gusting 6 8.3
2014-Dec-20 21:10 081 3 gusting 5 8.3
2014-Dec-20 21:05 068 3 gusting 4 8.3
2014-Dec-20 21:00 039 3 gusting 4 8.3
2014-Dec-20 20:55 047 2 gusting 3 8.3
2014-Dec-20 20:50 059 1 gusting 3 8.3
2014-Dec-20 20:45 039 0 gusting 3 8.3
2014-Dec-20 20:40 213 1 gusting 3 8.3
2014-Dec-20 20:35 201 0 gusting 2 8.3
2014-Dec-20 20:30 214 1 gusting 2 8.3
2014-Dec-20 20:25 236 0 gusting 2 8.3
2014-Dec-20 20:20 220 1 gusting 3 8.3
2014-Dec-20 20:15 235 1 gusting 3 8.3
2014-Dec-20 20:10 345 1 gusting 2 8.9
2014-Dec-20 20:05 092 0 gusting 1 8.9
2014-Dec-20 20:00 103 1 gusting 3 9.4
2014-Dec-20 19:55 083 1 gusting 4 9.4
2014-Dec-20 19:50 072 1 gusting 6 10.0
2014-Dec-20 19:45 057 3 gusting 6 10.0
2014-Dec-20 19:40 041 3 gusting 6 10.0
2014-Dec-20 19:35 066 5 gusting 6 10.0
2014-Dec-20 19:30 077 1 gusting 6 10.0
2014-Dec-20 19:25 051 3 gusting 6 10.0
2014-Dec-20 19:20 033 5 gusting 6 10.0
2014-Dec-20 19:15 031 4 gusting 6 10.0
2014-Dec-20 19:10 043 1 gusting 3 10.0
2014-Dec-20 19:05 052 2 gusting 4 10.6
2014-Dec-20 19:00 061 2 gusting 4 10.6
2014-Dec-20 18:55 076 3 gusting 4 10.6
2014-Dec-20 18:50 114 0 gusting 2 10.6
2014-Dec-20 18:45 136 1 gusting 1 10.6
2014-Dec-20 18:40 10.6
2014-Dec-20 18:35 092 0 gusting 2 10.6
2014-Dec-20 18:30 070 1 gusting 6 11.1
2014-Dec-20 18:25 054 1 gusting 6 11.1
2014-Dec-20 18:20 050 3 gusting 6 11.1
2014-Dec-20 18:15 052 3 gusting 5 11.1
2014-Dec-20 18:10 056 2 gusting 6 11.1
2014-Dec-20 18:05 068 3 gusting 6 11.1
2014-Dec-20 18:00 087 3 gusting 5 11.1
2014-Dec-20 17:55 090 3 gusting 3 11.1
2014-Dec-20 17:50 087 1 gusting 3 11.7
2014-Dec-20 17:45 079 2 gusting 5 11.7
2014-Dec-20 17:40 080 1 gusting 5 11.7
2014-Dec-20 17:35 078 1 gusting 6 11.7
2014-Dec-20 17:30 081 2 gusting 6 12.2
2014-Dec-20 17:25 079 3 gusting 6 12.2
2014-Dec-20 17:20 069 3 gusting 6 12.2
2014-Dec-20 17:15 071 2 gusting 4 12.2
2014-Dec-20 17:10 058 3 gusting 4 12.8
2014-Dec-20 17:05 050 2 gusting 6 12.8
2014-Dec-20 17:00 059 2 gusting 6 12.8
2014-Dec-20 16:55 061 3 gusting 6 12.8
2014-Dec-20 16:50 052 3 gusting 6 13.3
2014-Dec-20 16:45 047 2 gusting 3 13.3
2014-Dec-20 16:40 025 2 gusting 3 13.9
2014-Dec-20 16:35 358 1 gusting 3 14.4
2014-Dec-20 16:30 15.0
2014-Dec-20 16:25 332 1 gusting 3 15.0
2014-Dec-20 16:20 341 3 gusting 4 15.0
2014-Dec-20 16:15 351 3 gusting 4 15.6
2014-Dec-20 16:10 334 1 gusting 3 15.6
2014-Dec-20 16:05 339 2 gusting 3 15.6
2014-Dec-20 16:00 344 1 gusting 3 15.6
2014-Dec-20 15:55 324 2 gusting 3 15.6
2014-Dec-20 15:50 323 2 gusting 3 16.1
2014-Dec-20 15:45 339 2 gusting 3 16.7
2014-Dec-20 15:40 343 2 gusting 3 17.8
2014-Dec-20 15:35 342 0 gusting 3 17.8
2014-Dec-20 15:30 342 1 gusting 3 18.9
2014-Dec-20 15:25 346 0 gusting 1 18.9
2014-Dec-20 15:20 044 0 gusting 3 18.3
2014-Dec-20 15:15 049 0 gusting 3 17.2
2014-Dec-20 15:10 031 1 gusting 3 16.7
2014-Dec-20 15:05 032 2 gusting 4 17.2
2014-Dec-20 15:00 046 2 gusting 4 17.2
2014-Dec-20 14:55 057 2 gusting 4 17.8
2014-Dec-20 14:50 051 0 gusting 4 17.8
2014-Dec-20 14:45 042 3 gusting 4 18.3
2014-Dec-20 14:40 052 1 gusting 4 19.4
2014-Dec-20 14:35 077 1 gusting 3 19.4
2014-Dec-20 14:30 18.9
2014-Dec-20 14:25 056 0 gusting 3 17.8
2014-Dec-20 14:20 056 0 gusting 3 18.3
2014-Dec-20 14:15 102 0 gusting 2 17.8
2014-Dec-20 14:10 109 1 gusting 2 17.8
2014-Dec-20 14:05 17.8
2014-Dec-20 14:00 17.2
2014-Dec-20 13:55 071 1 gusting 3 17.8
2014-Dec-20 13:50 095 1 gusting 2 18.9
2014-Dec-20 13:45 18.3
2014-Dec-20 13:40 154 0 gusting 2 17.8
2014-Dec-20 13:35 17.8
2014-Dec-20 13:30 166 1 gusting 2 17.8
2014-Dec-20 13:25 147 1 gusting 2 17.8
2014-Dec-20 13:20 17.8
2014-Dec-20 13:15 16.7
2014-Dec-20 13:10 031 0 gusting 1 16.1
2014-Dec-20 13:05 030 0 gusting 2 15.0
2014-Dec-20 13:00 142 0 gusting 2 15.0
2014-Dec-20 12:55 134 1 gusting 2 14.4
2014-Dec-20 12:50 131 1 gusting 3 13.9
2014-Dec-20 12:45 118 1 gusting 4 12.2
2014-Dec-20 12:40 098 1 gusting 4 11.7
2014-Dec-20 12:35 080 3 gusting 6 11.7
2014-Dec-20 12:30 068 2 gusting 6 11.7
2014-Dec-20 12:25 054 3 gusting 5 12.2
2014-Dec-20 12:20 047 3 gusting 5 12.2
2014-Dec-20 12:15 069 2 gusting 3 12.8
2014-Dec-20 12:10 107 0 gusting 3 12.8
2014-Dec-20 12:05 113 1 gusting 3 12.2
2014-Dec-20 12:00 108 1 gusting 3 12.2
2014-Dec-20 11:55 119 1 gusting 3 12.8
2014-Dec-20 11:50 113 1 gusting 2 12.2
2014-Dec-20 11:45 070 1 gusting 3 12.2
2014-Dec-20 11:40 057 2 gusting 3 12.2
2014-Dec-20 11:35 062 1 gusting 3 12.2
2014-Dec-20 11:30 11.1
2014-Dec-20 11:25 084 1 gusting 3 11.1
2014-Dec-20 11:20 096 1 gusting 3 10.6
2014-Dec-20 11:15 089 1 gusting 3 10.0
2014-Dec-20 11:10 094 1 gusting 3 10.0
2014-Dec-20 11:05 112 1 gusting 3 10.0
2014-Dec-20 11:00 126 1 gusting 3 9.4
2014-Dec-20 10:55 120 1 gusting 2 10.0
2014-Dec-20 10:50 101 1 gusting 3 10.0
2014-Dec-20 10:45 098 1 gusting 3 8.9
2014-Dec-20 10:40 107 1 gusting 3 8.9
2014-Dec-20 10:35 115 1 gusting 3 8.3
2014-Dec-20 10:30 083 1 gusting 3 8.3
2014-Dec-20 10:25 056 1 gusting 3 8.3
2014-Dec-20 10:20 079 1 gusting 3 7.2
2014-Dec-20 10:15 097 1 gusting 5 6.1
2014-Dec-20 10:10 103 3 gusting 5 6.1
2014-Dec-20 10:05 107 2 gusting 3 5.6
2014-Dec-20 10:00 100 3 gusting 3 5.6
2014-Dec-20 09:55 094 3 gusting 3 5.6
2014-Dec-20 09:50 102 2 gusting 3 6.1
2014-Dec-20 09:45 106 1 gusting 3 6.1
2014-Dec-20 09:40 087 1 gusting 3 5.6
2014-Dec-20 09:35 071 1 gusting 3 5.6
2014-Dec-20 09:30 054 1 gusting 3 5.6
2014-Dec-20 09:25 045 1 gusting 3 5.0
2014-Dec-20 09:20 045 2 gusting 4 5.0
2014-Dec-20 09:15 046 1 gusting 4 4.4
2014-Dec-20 09:10 047 3 gusting 4 4.4
2014-Dec-20 09:05 050 1 gusting 3 4.4
2014-Dec-20 09:00 021 2 gusting 3 5.0
2014-Dec-20 08:55 354 0 gusting 3 4.4
2014-Dec-20 08:50 353 1 gusting 3 4.4
2014-Dec-20 08:45 350 1 gusting 3 4.4
2014-Dec-20 08:40 3.3
2014-Dec-20 08:35 340 1 gusting 3 3.3
2014-Dec-20 08:30 326 1 gusting 2 3.9
2014-Dec-20 08:25 2.8
2014-Dec-20 08:20 345 1 gusting 3 2.2
2014-Dec-20 08:15 340 2 gusting 3 2.2
2014-Dec-20 08:10 333 1 gusting 3 2.2
2014-Dec-20 08:05 337 1 gusting 3 1.7
2014-Dec-20 08:00 323 2 gusting 3 1.7
2014-Dec-20 07:55 313 1 gusting 2 1.1
2014-Dec-20 07:50 319 1 gusting 2 0.6
2014-Dec-20 07:45 329 0 gusting 2 -0.0
2014-Dec-20 07:40 339 1 gusting 2 -0.0
2014-Dec-20 07:35 330 1 gusting 2 -0.0
2014-Dec-20 07:30 321 1 gusting 1 -0.0
2014-Dec-20 07:25 348 0 gusting 1 -0.0
2014-Dec-20 07:20 001 1 gusting 1 -0.0
2014-Dec-20 07:15 025 1 gusting 2 -0.0
2014-Dec-20 07:10 032 1 gusting 2 -0.0
2014-Dec-20 07:05 -0.0
2014-Dec-20 07:00 -0.0
2014-Dec-20 06:55 284 0 gusting 1 -0.0
2014-Dec-20 06:50 -0.0
2014-Dec-20 06:45 314 0 gusting 1 -0.0
2014-Dec-20 06:40 -0.0
2014-Dec-20 06:35 -0.6
2014-Dec-20 06:30 -0.0
2014-Dec-20 06:25 -0.0
2014-Dec-20 06:20 -0.0
2014-Dec-20 06:15 -0.0
2014-Dec-20 06:10 348 1 gusting 1 0.6
2014-Dec-20 06:05 356 1 gusting 1 0.6
2014-Dec-20 06:00 353 1 gusting 2 0.6
2014-Dec-20 05:55 349 1 gusting 2 0.6
2014-Dec-20 05:50 352 1 gusting 2 0.6
2014-Dec-20 05:45 348 1 gusting 2 0.6
2014-Dec-20 05:40 343 1 gusting 3 0.6
2014-Dec-20 05:35 336 1 gusting 3 0.6
2014-Dec-20 05:30 320 1 gusting 2 1.1
2014-Dec-20 05:25 318 1 gusting 2 0.6
2014-Dec-20 05:20 333 1 gusting 2 0.6
2014-Dec-20 05:15 335 1 gusting 2 0.6
2014-Dec-20 05:10 327 1 gusting 2 0.6
2014-Dec-20 05:05 331 1 gusting 1 0.6
2014-Dec-20 05:00 1.1
2014-Dec-20 04:55 043 0 gusting 3 1.1
2014-Dec-20 04:50 048 0 gusting 3 1.1
2014-Dec-20 04:45 040 1 gusting 3 1.1
2014-Dec-20 04:40 027 1 gusting 2 1.1
2014-Dec-20 04:35 016 0 gusting 2 1.1
2014-Dec-20 04:30 010 1 gusting 2 1.1
2014-Dec-20 04:25 021 1 gusting 2 1.1
2014-Dec-20 04:20 031 0 gusting 3 1.1
2014-Dec-20 04:15 038 1 gusting 3 1.1
2014-Dec-20 04:10 045 1 gusting 2 1.1
2014-Dec-20 04:05 1.1
2014-Dec-20 04:00 043 0 gusting 3 1.7
2014-Dec-20 03:55 048 1 gusting 3 1.1
2014-Dec-20 03:50 045 2 gusting 3 1.1
2014-Dec-20 03:45 032 1 gusting 3 1.7
2014-Dec-20 03:40 022 1 gusting 3 1.1
2014-Dec-20 03:35 323 1 gusting 1 1.1
2014-Dec-20 03:30 1.7
2014-Dec-20 03:25 1.7
2014-Dec-20 03:20 357 1 gusting 2 1.7
2014-Dec-20 03:15 315 0 gusting 1 1.7
2014-Dec-20 03:10 1.7
2014-Dec-20 03:05 1.7
2014-Dec-20 03:00 1.7
2014-Dec-20 02:55 348 1 gusting 3 1.7
2014-Dec-20 02:50 343 2 gusting 3 2.2
2014-Dec-20 02:45 332 1 gusting 2 2.2
2014-Dec-20 02:40 326 0 gusting 3 2.2
2014-Dec-20 02:35 337 0 gusting 3 2.2
2014-Dec-20 02:30 345 1 gusting 3 2.2
2014-Dec-20 02:25 353 0 gusting 3 2.2
2014-Dec-20 02:20 003 1 gusting 2 2.2
2014-Dec-20 02:15 051 1 gusting 3 2.2
2014-Dec-20 02:10 089 1 gusting 3 2.2
2014-Dec-20 02:05 094 1 gusting 2 2.2
2014-Dec-20 02:00 050 1 gusting 3 2.2
2014-Dec-20 01:55 037 0 gusting 3 2.2
2014-Dec-20 01:50 045 2 gusting 4 2.2
2014-Dec-20 01:45 042 0 gusting 4 2.2
2014-Dec-20 01:40 031 3 gusting 4 2.2
2014-Dec-20 01:35 011 0 gusting 2 2.2
2014-Dec-20 01:30 027 1 gusting 2 2.2
2014-Dec-20 01:25 035 1 gusting 2 2.8
2014-Dec-20 01:20 336 1 gusting 1 2.8
2014-Dec-20 01:15 337 0 gusting 1 2.8
2014-Dec-20 01:10 2.8
2014-Dec-20 01:05 040 1 gusting 2 2.2
2014-Dec-20 01:00 2.2
2014-Dec-20 00:55 058 0 gusting 1 2.2
2014-Dec-20 00:50 045 0 gusting 1 2.8
2014-Dec-20 00:45 2.8
2014-Dec-20 00:40 2.8
2014-Dec-20 00:35 030 1 gusting 3 2.8
2014-Dec-20 00:30 011 1 gusting 3 2.8
2014-Dec-20 00:25 008 1 gusting 2 2.8
2014-Dec-20 00:20 001 1 gusting 1 3.3
2014-Dec-20 00:15 350 1 gusting 1 2.8
2014-Dec-20 00:10 293 1 gusting 1 3.3
2014-Dec-20 00:05 281 1 gusting 2 3.3
2014-Dec-20 00:00 279 1 gusting 2 3.3
2014-Dec-19 23:55 275 1 gusting 2 3.3
2014-Dec-19 23:50 270 1 gusting 2 3.3
2014-Dec-19 23:45 270 1 gusting 2 2.8
2014-Dec-19 23:40 2.8
2014-Dec-19 23:35 2.8
2014-Dec-19 23:30 3.3
2014-Dec-19 23:25 090 0 gusting 1 2.8
2014-Dec-19 23:20 3.3
2014-Dec-19 23:15 3.3
2014-Dec-19 23:10 3.3
2014-Dec-19 23:05 3.3
2014-Dec-19 23:00 3.3
2014-Dec-19 22:55 2.8
2014-Dec-19 22:50 2.8
2014-Dec-19 22:45 2.8
2014-Dec-19 22:40 2.8
2014-Dec-19 22:35 2.8
2014-Dec-19 22:30 3.3
2014-Dec-19 22:25 270 0 gusting 1 3.3
2014-Dec-19 22:20 3.3
2014-Dec-19 22:15 3.3
2014-Dec-19 22:10 3.3
2014-Dec-19 22:05 045 0 gusting 1 3.3
2014-Dec-19 22:00 3.3
2014-Dec-19 21:55 3.9
2014-Dec-19 21:50 030 1 gusting 1 3.9
2014-Dec-19 21:45 3.9
2014-Dec-19 21:40 045 0 gusting 1 3.9
2014-Dec-19 21:35 039 1 gusting 2 3.9
2014-Dec-19 21:30 039 1 gusting 3 3.9
2014-Dec-19 21:25 047 1 gusting 3 4.4
2014-Dec-19 21:20 066 2 gusting 3 4.4
2014-Dec-19 21:15 089 1 gusting 2 4.4
2014-Dec-19 21:10 086 1 gusting 1 4.4
2014-Dec-19 21:05 4.4
2014-Dec-19 21:00 4.4
2014-Dec-19 20:55 5.0
2014-Dec-19 20:50 045 0 gusting 2 5.0
2014-Dec-19 20:45 045 1 gusting 2 5.0
2014-Dec-19 20:40 045 1 gusting 1 5.0
2014-Dec-19 20:35 047 0 gusting 1 5.6
2014-Dec-19 20:30 054 0 gusting 1 5.6
2014-Dec-19 20:25 5.6
2014-Dec-19 20:20 5.6
2014-Dec-19 20:15 099 0 gusting 1 5.6
2014-Dec-19 20:10 111 0 gusting 1 6.1
2014-Dec-19 20:05 097 0 gusting 1 6.1
2014-Dec-19 20:00 6.1
2014-Dec-19 19:55 042 0 gusting 1 6.7
2014-Dec-19 19:50 6.7
2014-Dec-19 19:45 6.7
2014-Dec-19 19:40 6.7
2014-Dec-19 19:35 179 0 gusting 2 6.7
2014-Dec-19 19:30 6.7
2014-Dec-19 19:25 7.2
2014-Dec-19 19:20 7.2
2014-Dec-19 19:15 7.8
2014-Dec-19 19:10 165 0 gusting 1 7.8
2014-Dec-19 19:05 167 1 gusting 1 7.8
2014-Dec-19 19:00 210 1 gusting 1 7.8
2014-Dec-19 18:55 7.8
2014-Dec-19 18:50 245 0 gusting 2 7.8
2014-Dec-19 18:45 258 1 gusting 3 7.8
2014-Dec-19 18:40 248 1 gusting 3 7.8
2014-Dec-19 18:35 232 3 gusting 3 7.8
2014-Dec-19 18:30 229 2 gusting 3 7.8
2014-Dec-19 18:25 223 1 gusting 3 7.8
2014-Dec-19 18:20 222 2 gusting 3 7.8
2014-Dec-19 18:15 229 1 gusting 2 7.8
2014-Dec-19 18:10 230 1 gusting 3 7.8
2014-Dec-19 18:05 217 1 gusting 3 7.8
2014-Dec-19 18:00 211 2 gusting 4 7.8
2014-Dec-19 17:55 217 2 gusting 5 7.8
2014-Dec-19 17:50 219 1 gusting 5 7.8
2014-Dec-19 17:45 222 2 gusting 4 7.8
2014-Dec-19 17:40 218 3 gusting 4 7.8
2014-Dec-19 17:35 221 1 gusting 4 8.3
2014-Dec-19 17:30 222 1 gusting 4 8.3
2014-Dec-19 17:25 203 1 gusting 4 8.3
2014-Dec-19 17:20 193 2 gusting 3 8.3
2014-Dec-19 17:15 200 1 gusting 3 8.3
2014-Dec-19 17:05 217 1 gusting 3 9.4
2014-Dec-19 17:00 197 1 gusting 3 9.4
2014-Dec-19 16:50 212 2 gusting 5 9.4
2014-Dec-19 16:45 199 0 gusting 5 9.4
2014-Dec-19 16:40 183 2 gusting 5 10.0
2014-Dec-19 16:35 208 2 gusting 5 10.6
2014-Dec-19 16:30 227 1 gusting 5 11.1
2014-Dec-19 16:25 217 2 gusting 6 11.7
2014-Dec-19 16:20 220 1 gusting 6 12.2
2014-Dec-19 16:15 222 1 gusting 5 12.2
2014-Dec-19 16:10 203 1 gusting 5 12.2
2014-Dec-19 16:05 211 3 gusting 5 12.8
2014-Dec-19 16:00 228 3 gusting 5 13.3
2014-Dec-19 15:55 220 3 gusting 5 13.9
2014-Dec-19 15:50 223 3 gusting 5 14.4
2014-Dec-19 15:45 215 1 gusting 5 14.4
2014-Dec-19 15:40 200 1 gusting 6 13.9
2014-Dec-19 15:35 194 2 gusting 6 14.4
2014-Dec-19 15:30 207 1 gusting 6 13.9
2014-Dec-19 15:25 226 4 gusting 6 14.4
2014-Dec-19 15:20 213 2 gusting 6 14.4
2014-Dec-19 15:15 197 2 gusting 6 14.4
2014-Dec-19 15:10 172 5 gusting 6 15.6
2014-Dec-19 15:05 164 1 gusting 5 15.6
2014-Dec-19 15:00 185 0 gusting 6 15.6
2014-Dec-19 14:55 185 2 gusting 6 15.6
2014-Dec-19 14:50 199 1 gusting 5 16.1
2014-Dec-19 14:45 208 1 gusting 5 16.1
2014-Dec-19 14:40 188 2 gusting 5 16.1
2014-Dec-19 14:35 166 1 gusting 5 16.7
2014-Dec-19 14:30 181 1 gusting 3 16.7
2014-Dec-19 14:25 186 1 gusting 5 16.7
2014-Dec-19 14:20 178 1 gusting 5 16.7
2014-Dec-19 14:15 207 1 gusting 3 16.7
2014-Dec-19 14:10 260 1 gusting 5 16.7
2014-Dec-19 14:05 233 1 gusting 5 16.1
2014-Dec-19 14:00 198 1 gusting 5 16.7
2014-Dec-19 13:55 203 1 gusting 5 15.6
2014-Dec-19 13:50 216 3 gusting 6 15.6
2014-Dec-19 13:45 217 1 gusting 6 15.0
2014-Dec-19 13:40 233 2 gusting 6 15.6
2014-Dec-19 13:35 233 1 gusting 3 16.1
2014-Dec-19 13:30 203 0 gusting 5 15.6
2014-Dec-19 13:25 216 1 gusting 5 14.4
2014-Dec-19 13:20 243 2 gusting 4 15.0
2014-Dec-19 13:15 243 1 gusting 4 14.4
2014-Dec-19 13:10 253 3 gusting 4 15.0
2014-Dec-19 13:05 15.6
2014-Dec-19 13:00 208 1 gusting 6 14.4
2014-Dec-19 12:55 225 3 gusting 6 14.4
2014-Dec-19 12:50 240 2 gusting 5 15.0
2014-Dec-19 12:45 229 1 gusting 4 15.6
2014-Dec-19 12:40 15.6
2014-Dec-19 12:35 134 1 gusting 3 15.6
2014-Dec-19 12:30 262 0 gusting 2 15.6
2014-Dec-19 12:25 257 1 gusting 2 15.6
2014-Dec-19 12:20 335 0 gusting 1 16.7
2014-Dec-19 12:15 046 0 gusting 1 16.7
2014-Dec-19 12:10 114 0 gusting 2 15.6
2014-Dec-19 12:05 117 0 gusting 2 14.4
2014-Dec-19 12:00 076 0 gusting 2 14.4
2014-Dec-19 11:55 15.0
2014-Dec-19 11:50 13.3
2014-Dec-19 11:45 117 1 gusting 2 12.8
2014-Dec-19 11:40 104 1 gusting 3 12.2
2014-Dec-19 11:35 107 1 gusting 3 12.2
2014-Dec-19 11:30 129 1 gusting 3 12.2
2014-Dec-19 11:25 146 1 gusting 2 12.2
2014-Dec-19 11:20 139 1 gusting 2 12.2
2014-Dec-19 11:15 123 1 gusting 2 11.7
2014-Dec-19 11:10 100 1 gusting 2 12.2
2014-Dec-19 11:05 094 1 gusting 1 12.2
2014-Dec-19 11:00 109 1 gusting 2 12.2
2014-Dec-19 10:55 114 0 gusting 3 11.7
2014-Dec-19 10:50 11.1
2014-Dec-19 10:45 096 1 gusting 2 10.6
2014-Dec-19 10:40 087 1 gusting 2 10.6
2014-Dec-19 10:35 102 1 gusting 3 10.0
2014-Dec-19 10:30 8.9
2014-Dec-19 10:25 092 1 gusting 3 8.3
2014-Dec-19 10:20 109 1 gusting 3 8.3
2014-Dec-19 10:15 124 1 gusting 3 8.3
2014-Dec-19 10:10 122 1 gusting 3 8.3
2014-Dec-19 10:05 117 2 gusting 3 8.3
2014-Dec-19 10:00 108 1 gusting 3 7.8
2014-Dec-19 09:55 105 1 gusting 3 7.8
2014-Dec-19 09:50 117 1 gusting 3 7.8
2014-Dec-19 09:45 107 1 gusting 3 7.2
2014-Dec-19 09:40 093 2 gusting 3 7.2
2014-Dec-19 09:35 100 1 gusting 3 6.7
2014-Dec-19 09:30 107 2 gusting 3 7.2
2014-Dec-19 09:25 103 2 gusting 3 8.3
2014-Dec-19 09:20 072 1 gusting 1 9.4
2014-Dec-19 09:15 056 0 gusting 1 9.4
2014-Dec-19 09:10 095 0 gusting 1 9.4
2014-Dec-19 09:05 9.4
2014-Dec-19 09:00 9.4